User: anonymous   Login
Location: San Vito
(41.8833°N, 12.9833°E)
Time: 03:17:33
(UTC+00:00)
Language:

STARLINK-24 - Orbit

View from above orbital plane
View from above orbital plane
View from above satellite
View from above satellite

Ground track
Ground track

The orbit data is extracted from the following two-line orbital elements,

1 44238U 19029D   20021.42498973  .00001267  00000-0  89374-4 0  9994
2 44238  52.9967 161.2051 0001815 106.6518 253.4672 15.12291770 36631
Epoch (UTC): 21 January 2020 10:11:59
Eccentricity: 0.0001815
inclination: 52.9967°
perigee height: 528 km
apogee height: 530 km
right ascension of ascending node: 161.2051°
argument of perigee: 106.6518°
revolutions per day: 15.12291770
mean anomaly at epoch: 253.4672°
orbit number at epoch: 3663

The dashed part of the orbit path shows where the satellite is in the earth's shadow,  

DLR